QPF
0.00 0.00 0.00 0.00 0.00 0.00 0.00 0.00 0.00 0.00 0.00 0.00 0.00 0.00 0.00 0.00 0.00 0.00 0.00 0.00 0.00 0.00 0.00 0.00 0.00 0.00 0.00 0.00 0.00 0.00 0.00 0.00 0.00 0.00 0.00 0.00 0.00 0.00 0.00 0.00 0.00 0.00 0.00
0.00 0.00 0.00 0.00 0.00 0.00 0.00 0.00 0.00 0.00 0.00 0.00 0.00 0.00 0.00 0.00 0.00 0.00 0.00 0.00 0.00 0.00 0.00 0.00 0.00 0.00 0.00 0.00 0.00 0.00 0.00 0.00 0.00 0.00 0.00 0.00 0.00 0.00 0.00 0.00 0.00 0.00 0.00
0.00 0.00 0.00 0.00 0.00 0.00 0.00 0.00 0.00 0.00 0.00 0.00 0.00 0.00 0.00 0.00 0.00 0.00 0.00 0.00 0.00 0.00 0.00 0.00 0.00 0.00 0.00 0.00 0.00 0.00 0.00 0.00 0.00 0.00 0.00 0.00 0.00 0.00 0.00 0.00 0.00 0.00 0.00
0.00 0.00 0.00 0.00 0.00 0.00 0.00 0.00 0.00 0.00 0.00 0.00 0.00 0.00 0.00 0.00 0.00 0.00 0.00 0.00 0.00 0.00 0.00 0.00 0.00 0.00 0.00 0.00 0.00 0.00 0.00 0.00 0.00 0.00 0.00 0.00 0.00 0.00 0.00 0.00 0.00 0.00 0.00
0.00 0.00 0.00 0.00 0.00 0.00 0.00 0.00 0.00 0.00 0.00 0.00 0.00 0.00 0.00 0.00 0.00 0.00 0.00 0.00 0.00 0.00 0.00 0.00 0.00 0.00 0.00 0.00 0.00 0.00 0.00 0.00 0.00 0.00 0.00 0.00 0.00 0.00 0.00 0.00 0.00 0.00 0.00
0.00 0.00 0.00 0.00 0.00 0.00 0.00 0.00 0.00 0.00 0.00 0.00 0.00 0.00 0.00 0.00 0.00 0.00 0.00 0.00 0.00 0.00 0.00 0.00 0.00 0.00 0.00 0.00 0.00 0.00 0.00 0.00 0.00 0.00 0.00 0.00 0.00 0.00 0.00 0.00 0.00 0.00 0.00
0.00 0.00 0.00 0.00 0.00 0.00 0.00 0.00 0.00 0.00 0.00 0.00 0.00 0.00 0.00 0.00 0.00 0.00 0.00 0.00 0.00 0.00 0.00 0.00 0.00 0.00 0.00 0.00 0.00 0.00 0.00 0.00 0.00 0.00 0.00 0.00 0.00 0.00 0.00 0.00 0.00 0.00 0.00
0.00 0.00 0.00 0.00 0.00 0.00 0.00 0.00 0.00 0.00 0.00 0.00 0.00 0.00 0.00 0.00 0.00 0.00 0.00 0.00 0.00 0.00 0.00 0.00 0.00 0.00 0.00 0.00 0.00 0.00 0.00 0.00 0.00 0.00 0.00 0.00 0.00 0.00 0.00 0.00 0.00 0.00 0.00
0.00 0.00 0.00 0.00 0.00 0.00 0.00 0.00 0.00 0.00 0.00 0.00 0.00 0.00 0.00 0.00 0.00 0.00 0.00 0.00 0.00 0.00 0.00 0.00 0.00 0.00 0.00 0.00 0.00 0.00 0.00 0.00 0.00 0.00 0.00 0.00 0.00 0.01 0.00 0.00 0.00 0.00 0.00
0.00 0.00 0.00 0.00 0.00 0.00 0.00 0.00 0.00 0.00 0.00 0.00 0.00 0.00 0.00 0.00 0.00 0.00 0.00 0.00 0.00 0.00 0.00 0.00 0.00 0.00 0.00 0.00 0.00 0.00 0.00 0.00 0.00 0.00 0.00 0.00 0.00 0.01 0.03 0.01 0.00 0.00 0.00
0.00 0.00 0.00 0.00 0.00 0.00 0.00 0.00 0.00 0.00 0.00 0.00 0.00 0.00 0.00 0.00 0.00 0.00 0.00 0.00 0.00 0.00 0.00 0.00 0.00 0.00 0.00 0.00 0.00 0.00 0.00 0.00 0.00 0.00 0.00 0.00 0.00 0.00 0.00 0.00 0.00 0.00 0.00
0.00 0.00 0.00 0.00 0.00 0.00 0.00 0.00 0.00 0.00 0.00 0.00 0.00 0.00 0.00 0.00 0.00 0.00 0.00 0.00 0.00 0.00 0.00 0.00 0.00 0.00 0.00 0.00 0.00 0.00 0.01 0.01 0.01 0.01 0.01 0.00 0.00 0.00 0.00 0.00 0.00 0.00 0.00
0.00 0.00 0.00 0.00 0.00 0.00 0.00 0.00 0.00 0.00 0.00 0.00 0.00 0.00 0.00 0.00 0.00 0.00 0.00 0.00 0.00 0.00 0.00 0.00 0.00 0.00 0.00 0.00 0.00 0.00 0.00 0.01 0.01 0.01 0.01 0.00 0.00 0.00 0.00 0.00 0.00 0.00 0.00
0.00 0.00 0.00 0.00 0.00 0.00 0.00 0.00 0.00 0.00 0.00 0.00 0.00 0.00 0.00 0.00 0.00 0.00 0.00 0.00 0.00 0.00 0.00 0.00 0.00 0.00 0.00 0.00 0.00 0.00 0.00 0.00 0.00 0.01 0.01 0.01 0.01 0.00 0.00 0.00 0.00 0.00 0.00
0.00 0.00 0.00 0.00 0.00 0.00 0.00 0.00 0.00 0.00 0.00 0.00 0.00 0.00 0.00 0.00 0.00 0.00 0.00 0.00 0.00 0.00 0.00 0.00 0.00 0.00 0.00 0.00 0.00 0.00 0.00 0.00 0.00 0.00 0.01 0.01 0.01 0.01 0.00 0.00 0.00 0.00 0.00
0.00 0.00 0.00 0.00 0.00 0.00 0.00 0.00 0.00 0.00 0.00 0.00 0.00 0.00 0.00 0.00 0.00 0.00 0.00 0.00 0.00 0.00 0.00 0.00 0.00 0.00 0.00 0.00 0.00 0.00 0.00 0.00 0.00 0.00 0.00 0.00 0.01 0.00 0.00 0.00 0.00 0.00 0.00
0.00 0.00 0.00 0.00 0.00 0.00 0.00 0.00 0.00 0.00 0.00 0.00 0.00 0.00 0.00 0.00 0.00 0.00 0.00 0.00 0.00 0.00 0.00 0.00 0.00 0.00 0.00 0.00 0.00 0.00 0.00 0.00 0.00 0.00 0.00 0.01 0.01 0.01 0.00 0.00 0.00 0.00 0.00
0.00 0.00 0.00 0.00 0.00 0.00 0.00 0.00 0.00 0.00 0.00 0.00 0.00 0.00 0.00 0.00 0.00 0.00 0.00 0.00 0.00 0.00 0.00 0.00 0.00 0.00 0.00 0.00 0.00 0.00 0.00 0.00 0.00 0.00 0.00 0.00 0.01 0.01 0.01 0.00 0.00 0.00 0.00
0.00 0.00 0.00 0.00 0.00 0.00 0.00 0.00 0.00 0.00 0.00 0.00 0.00 0.00 0.00 0.00 0.00 0.00 0.00 0.00 0.00 0.00 0.00 0.00 0.00 0.00 0.00 0.00 0.00 0.00 0.00 0.00 0.00 0.00 0.00 0.00 0.00 0.01 0.00 0.00 0.00 0.00 0.00
0.00 0.00 0.00 0.00 0.00 0.00 0.00 0.00 0.00 0.00 0.00 0.00 0.00 0.00 0.00 0.00 0.00 0.00 0.00 0.00 0.00 0.00 0.00 0.00 0.00 0.00 0.00 0.00 0.00 0.00 0.00 0.00 0.00 0.00 0.00 0.01 0.00 0.00 0.00 0.00 0.00 0.00 0.00
0.00 0.00 0.00 0.00 0.00 0.00 0.00 0.00 0.00 0.00 0.00 0.00 0.00 0.00 0.00 0.00 0.00 0.00 0.00 0.00 0.00 0.00 0.00 0.00 0.00 0.00 0.00 0.00 0.00 0.00 0.00 0.00 0.00 0.01 0.01 0.01 0.01 0.01 0.00 0.00 0.00 0.00 0.00
0.00 0.00 0.00 0.00 0.00 0.00 0.00 0.00 0.00 0.00 0.00 0.00 0.00 0.00 0.00 0.00 0.00 0.00 0.00 0.00 0.00 0.00 0.00 0.00 0.00 0.00 0.00 0.00 0.01 0.01 0.00 0.00 0.00 0.01 0.01 0.01 0.01 0.00 0.00 0.00 0.00 0.00 0.00
0.00 0.00 0.00 0.00 0.00 0.00 0.00 0.00 0.00 0.00 0.00 0.00 0.00 0.00 0.00 0.00 0.00 0.00 0.00 0.00 0.00 0.00 0.00 0.00 0.00 0.00 0.00 0.00 0.00 0.01 0.01 0.01 0.01 0.01 0.01 0.01 0.01 0.00 0.01 0.00 0.00 0.00 0.00
0.00 0.00 0.00 0.00 0.00 0.00 0.00 0.00 0.00 0.00 0.00 0.00 0.00 0.00 0.00 0.00 0.00 0.00 0.00 0.00 0.00 0.00 0.00 0.00 0.00 0.00 0.00 0.00 0.00 0.01 0.01 0.01 0.01 0.01 0.01 0.01 0.01 0.01 0.01 0.00 0.00 0.00 0.00
0.00 0.00 0.00 0.00 0.00 0.00 0.00 0.00 0.00 0.00 0.00 0.00 0.00 0.00 0.00 0.00 0.00 0.00 0.00 0.00 0.00 0.00 0.00 0.00 0.00 0.00 0.00 0.00 0.00 0.00 0.00 0.00 0.01 0.01 0.01 0.01 0.01 0.01 0.00 0.00 0.00 0.00 0.00
0.00 0.00 0.00 0.00 0.00 0.00 0.00 0.00 0.00 0.00 0.00 0.00 0.00 0.00 0.00 0.00 0.00 0.00 0.00 0.00 0.00 0.00 0.00 0.00 0.00 0.00 0.00 0.00 0.00 0.00 0.00 0.01 0.01 0.01 0.01 0.01 0.01 0.01 0.00 0.00 0.00 0.00 0.00
MSLP
1016.10 1016.33 1016.62 1016.71 1016.77 1016.84 1016.88 1016.88 1016.87 1016.85 1016.88 1016.77 1016.83 1016.95 1016.99 1017.00 1017.07 1017.20 1017.14 1017.15 1017.08 1017.02 1017.02 1016.94 1016.90 1017.09 1016.87 1017.04 1017.11 1017.38 1017.01 1016.81 1015.88 1015.50 1015.56 1015.77 1016.09 1016.25 1016.21 1016.36 1016.40 1016.26 1016.33
1015.67 1015.95 1016.08 1016.17 1016.26 1016.29 1016.18 1016.18 1016.17 1016.11 1016.14 1016.33 1016.41 1016.37 1016.27 1016.31 1016.34 1016.29 1016.23 1016.20 1015.99 1015.76 1015.68 1015.90 1015.78 1016.10 1016.09 1016.06 1015.85 1015.71 1015.84 1015.86 1015.72 1014.98 1015.15 1014.97 1015.00 1015.30 1015.35 1015.44 1015.21 1015.30 1015.28
1015.23 1015.33 1015.42 1015.46 1015.52 1015.57 1015.61 1015.65 1015.64 1015.57 1015.48 1015.57 1015.73 1015.61 1015.46 1015.40 1015.34 1015.31 1015.33 1015.17 1015.05 1014.98 1014.98 1014.92 1014.61 1014.94 1014.74 1014.86 1014.91 1014.96 1015.03 1015.30 1015.31 1015.12 1014.71 1014.76 1014.41 1014.68 1015.10 1014.79 1014.73 1014.58 1014.54
1014.80 1014.83 1014.93 1015.00 1015.10 1015.19 1015.22 1015.25 1015.24 1015.19 1015.11 1014.88 1014.85 1014.72 1014.63 1014.60 1014.53 1014.57 1014.53 1014.40 1014.19 1013.92 1013.96 1014.02 1014.00 1013.90 1013.79 1013.89 1014.22 1014.33 1014.47 1014.45 1014.20 1013.86 1013.56 1013.53 1013.63 1013.79 1014.24 1014.44 1014.01 1013.93 1013.87
1014.34 1014.40 1014.54 1014.68 1014.94 1014.99 1015.00 1014.87 1014.70 1014.63 1014.42 1014.24 1014.12 1014.07 1014.15 1014.17 1014.01 1013.75 1013.88 1013.81 1013.60 1013.46 1013.06 1013.10 1013.30 1013.18 1013.09 1013.20 1013.23 1012.99 1012.99 1013.01 1013.03 1012.87 1012.66 1012.83 1012.78 1013.08 1013.31 1013.45 1013.59 1013.54 1013.34
1013.99 1014.04 1014.21 1014.60 1014.59 1014.66 1014.66 1014.50 1014.36 1014.18 1014.04 1013.82 1013.61 1013.60 1013.43 1013.19 1013.10 1013.35 1013.43 1012.99 1012.68 1012.32 1012.07 1011.92 1011.87 1012.30 1012.51 1012.47 1012.21 1012.09 1012.25 1012.06 1012.33 1012.30 1011.91 1011.68 1011.78 1012.22 1012.42 1012.66 1012.83 1013.23 1012.82
1013.68 1013.82 1013.96 1014.08 1014.20 1014.15 1014.10 1013.94 1013.70 1013.41 1013.14 1013.07 1012.97 1013.01 1012.84 1012.52 1012.36 1012.50 1012.63 1012.63 1012.08 1011.66 1011.57 1011.29 1011.17 1010.87 1011.12 1011.20 1011.21 1011.35 1011.35 1011.42 1011.62 1011.91 1011.49 1011.42 1011.29 1011.31 1011.68 1012.12 1012.35 1012.63 1012.38
1013.34 1013.52 1013.68 1013.80 1013.82 1013.78 1013.72 1013.53 1013.24 1013.07 1012.99 1012.79 1012.65 1012.43 1012.25 1011.88 1011.90 1011.99 1012.00 1011.74 1011.29 1010.87 1010.35 1010.02 1010.11 1010.06 1010.14 1010.55 1010.63 1010.31 1010.14 1010.12 1010.03 1010.25 1010.29 1010.26 1010.21 1010.35 1010.66 1010.90 1011.31 1011.57 1011.66
1012.95 1013.17 1013.37 1013.45 1013.44 1013.39 1013.24 1013.15 1013.02 1012.87 1012.69 1012.44 1012.23 1011.97 1011.75 1011.43 1011.36 1011.55 1011.59 1010.92 1010.03 1009.61 1009.60 1009.57 1009.43 1009.33 1009.41 1009.79 1010.11 1009.89 1009.45 1009.32 1009.31 1009.29 1009.27 1009.14 1009.18 1009.43 1009.69 1010.20 1010.48 1011.11 1011.18
1012.51 1012.80 1012.92 1013.08 1013.12 1012.99 1012.94 1012.98 1012.91 1012.85 1012.49 1012.17 1011.69 1011.54 1011.37 1011.34 1011.15 1011.20 1011.09 1010.48 1009.92 1009.37 1009.19 1009.23 1009.25 1009.46 1009.30 1009.32 1009.14 1008.95 1008.89 1008.63 1008.86 1008.94 1009.00 1008.85 1008.78 1008.76 1008.75 1008.77 1009.13 1009.59 1009.99
1012.08 1012.40 1012.55 1012.63 1012.72 1012.72 1012.81 1012.78 1012.67 1012.49 1012.29 1012.04 1011.75 1011.49 1011.36 1011.12 1010.92 1011.02 1011.02 1010.60 1009.76 1009.11 1008.75 1008.78 1008.70 1008.87 1009.00 1008.98 1009.10 1008.60 1008.52 1008.55 1008.45 1008.32 1008.07 1007.86 1008.01 1008.13 1008.24 1008.16 1008.22 1008.62 1008.90
1011.85 1012.10 1012.14 1012.18 1012.33 1012.51 1012.49 1012.42 1012.38 1012.30 1012.18 1011.81 1011.50 1011.18 1010.86 1010.87 1010.90 1010.76 1010.45 1010.27 1010.12 1009.61 1009.13 1008.85 1008.81 1009.01 1009.14 1008.81 1008.64 1008.31 1008.14 1007.84 1007.50 1007.29 1007.00 1006.86 1007.03 1007.19 1007.26 1007.34 1007.42 1007.48 1007.51
1011.68 1011.74 1011.78 1011.88 1011.99 1012.13 1012.15 1012.10 1012.02 1011.83 1011.79 1011.50 1011.15 1010.83 1010.56 1010.54 1010.44 1010.37 1010.33 1010.12 1009.67 1009.52 1008.92 1008.77 1008.92 1008.86 1008.65 1008.45 1008.19 1008.11 1007.79 1007.28 1006.94 1006.41 1006.11 1005.82 1005.93 1006.06 1006.25 1006.69 1006.82 1006.81 1006.88
1011.22 1011.37 1011.57 1011.65 1011.59 1011.64 1011.74 1011.86 1011.79 1011.50 1011.42 1011.31 1010.98 1010.73 1010.59 1010.45 1010.15 1010.13 1010.01 1010.00 1009.76 1009.45 1009.13 1008.51 1008.45 1008.50 1008.13 1008.46 1008.04 1007.51 1007.13 1007.15 1006.99 1006.55 1006.01 1005.46 1004.94 1005.08 1005.38 1005.90 1006.18 1006.25 1006.42
1010.93 1011.14 1011.23 1011.30 1011.32 1011.41 1011.40 1011.51 1011.43 1011.05 1011.24 1011.25 1011.02 1010.82 1010.61 1010.39 1010.46 1010.79 1010.67 1010.50 1010.41 1010.06 1010.09 1009.06 1008.26 1007.92 1007.69 1007.88 1008.10 1007.94 1007.49 1007.12 1006.89 1006.55 1006.20 1005.81 1005.26 1004.93 1005.03 1005.26 1005.49 1005.73 1005.88
1010.71 1010.81 1010.90 1011.09 1011.17 1011.31 1011.21 1010.93 1010.95 1011.18 1011.33 1011.60 1011.54 1011.28 1010.78 1011.09 1011.21 1011.16 1011.09 1010.94 1011.09 1010.82 1009.95 1009.40 1008.81 1008.47 1008.16 1008.14 1008.14 1008.10 1007.78 1007.25 1006.97 1006.72 1006.29 1005.86 1005.40 1005.01 1004.83 1004.86 1005.03 1005.16 1005.29
1010.50 1010.68 1010.85 1011.04 1010.91 1010.88 1010.91 1010.95 1010.88 1011.00 1011.42 1011.44 1011.39 1011.17 1011.15 1011.03 1011.12 1011.10 1010.89 1010.66 1010.32 1010.58 1010.04 1009.51 1009.15 1008.98 1008.79 1008.58 1008.34 1008.26 1007.89 1007.37 1006.96 1006.60 1006.09 1005.71 1005.27 1004.79 1004.44 1004.33 1004.54 1004.68 1004.81
1010.51 1010.74 1010.68 1010.56 1010.62 1010.65 1010.86 1010.86 1010.75 1010.57 1010.55 1010.68 1011.00 1010.94 1010.91 1011.12 1011.10 1011.14 1010.93 1010.80 1010.09 1009.80 1009.68 1009.59 1009.63 1009.27 1008.88 1008.66 1008.22 1008.08 1007.80 1007.23 1006.73 1006.36 1005.92 1005.53 1005.12 1004.66 1004.19 1003.85 1003.88 1004.08 1004.23
1010.30 1010.34 1010.40 1010.43 1010.46 1010.66 1010.74 1010.67 1010.58 1010.44 1010.44 1010.29 1010.48 1010.86 1011.10 1011.08 1010.84 1010.81 1010.59 1010.24 1009.99 1009.55 1009.62 1009.37 1009.29 1009.26 1008.96 1008.85 1008.37 1008.03 1007.69 1007.18 1006.69 1006.21 1005.75 1005.31 1004.87 1004.64 1004.06 1003.72 1003.33 1003.30 1003.54
1010.12 1010.30 1010.30 1010.20 1010.21 1010.38 1010.28 1010.18 1010.37 1010.28 1010.36 1010.36 1010.40 1010.43 1010.48 1010.77 1010.11 1009.79 1009.89 1009.91 1009.78 1009.43 1009.35 1009.43 1009.60 1009.40 1008.95 1008.74 1008.33 1007.91 1007.50 1007.11 1006.52 1006.17 1005.83 1005.10 1004.48 1004.19 1004.12 1003.55 1003.14 1002.85 1002.86
1009.97 1010.09 1010.18 1010.28 1010.24 1010.20 1010.45 1010.19 1009.87 1009.99 1009.91 1009.71 1010.07 1010.22 1010.55 1010.51 1009.91 1009.65 1009.74 1009.52 1009.44 1009.48 1009.57 1009.47 1009.45 1009.28 1008.85 1008.53 1008.11 1007.68 1007.28 1006.86 1006.37 1005.97 1005.40 1005.16 1004.63 1004.07 1003.83 1003.62 1003.15 1002.59 1002.41
1009.77 1009.90 1009.92 1009.96 1010.25 1010.01 1009.66 1009.76 1009.73 1009.68 1009.45 1009.47 1009.69 1009.87 1010.13 1009.89 1009.40 1009.27 1009.14 1009.09 1009.23 1009.19 1009.23 1009.42 1009.34 1009.07 1008.61 1008.13 1007.81 1007.37 1006.95 1006.56 1006.11 1005.64 1005.26 1004.90 1004.49 1004.13 1003.75 1003.35 1003.17 1002.63 1002.06
1009.68 1009.66 1009.79 1009.77 1009.75 1009.83 1009.71 1009.35 1009.36 1009.12 1009.13 1009.22 1009.16 1009.36 1009.46 1009.51 1009.11 1008.70 1008.60 1008.54 1008.77 1008.80 1008.73 1008.70 1008.84 1008.75 1008.24 1007.61 1007.33 1007.02 1006.56 1006.18 1005.87 1005.56 1005.07 1004.63 1004.20 1003.76 1003.41 1002.98 1002.87 1002.50 1002.03
1009.58 1009.60 1009.58 1009.38 1009.30 1009.49 1009.39 1009.11 1008.96 1008.96 1008.93 1008.96 1008.73 1008.65 1008.87 1008.90 1008.85 1008.62 1008.57 1008.32 1008.26 1008.35 1008.13 1008.02 1008.18 1008.22 1007.70 1007.09 1006.72 1006.41 1005.99 1005.65 1005.50 1005.15 1004.77 1004.25 1003.74 1003.36 1002.97 1002.56 1002.38 1002.14 1001.94
1009.19 1009.30 1009.38 1009.19 1009.04 1009.10 1009.01 1008.82 1008.71 1008.49 1008.52 1008.66 1008.62 1008.53 1008.30 1008.27 1008.27 1008.12 1008.18 1008.05 1007.85 1007.59 1007.59 1007.53 1007.55 1007.51 1007.03 1006.41 1006.08 1005.69 1005.29 1005.07 1004.78 1004.42 1003.94 1003.42 1002.99 1002.61 1002.38 1002.04 1001.79 1001.74 1001.38
1009.27 1009.37 1009.15 1009.08 1008.84 1008.77 1008.64 1008.50 1008.30 1008.07 1007.88 1008.05 1008.07 1007.97 1007.84 1007.70 1007.46 1007.61 1007.60 1007.51 1007.49 1007.07 1007.01 1006.98 1006.79 1006.73 1006.36 1005.68 1005.23 1004.89 1004.61 1004.27 1003.84 1003.43 1002.97 1002.48 1002.02 1001.75 1001.55 1001.35 1001.08 1001.08 1000.70
Thickness
5750 5745 5739 5733 5728 5721 5714 5708 5701 5696 5691 5688 5682 5674 5667 5662 5655 5648 5643 5637 5632 5627 5620 5615 5608 5600 5597 5588 5582 5574 5572 5568 5572 5573 5563 5553 5545 5538 5534 5529 5524 5522 5520
5748 5742 5737 5731 5725 5719 5714 5708 5702 5696 5690 5683 5676 5671 5665 5659 5652 5647 5641 5636 5632 5628 5622 5613 5605 5596 5589 5582 5578 5573 5564 5557 5553 5557 5551 5543 5536 5527 5524 5520 5519 5514 5511
5745 5740 5735 5730 5724 5717 5711 5705 5698 5693 5687 5680 5673 5668 5662 5657 5650 5645 5638 5634 5630 5623 5615 5608 5603 5592 5587 5577 5569 5561 5552 5542 5534 5530 5531 5523 5517 5510 5503 5506 5503 5502 5500
5740 5736 5730 5725 5720 5713 5707 5700 5692 5685 5680 5676 5670 5665 5660 5654 5647 5640 5634 5630 5625 5620 5611 5602 5594 5586 5579 5568 5555 5546 5534 5525 5518 5513 5511 5508 5503 5497 5491 5488 5490 5488 5486
5736 5732 5726 5721 5713 5707 5700 5694 5689 5681 5676 5672 5666 5660 5652 5646 5640 5636 5628 5622 5617 5611 5606 5596 5585 5577 5566 5554 5542 5534 5523 5512 5505 5500 5497 5491 5489 5482 5475 5471 5467 5467 5472
5730 5727 5720 5712 5706 5699 5693 5687 5682 5676 5670 5665 5660 5653 5648 5644 5637 5626 5618 5618 5613 5608 5599 5590 5581 5566 5550 5538 5528 5517 5505 5500 5492 5484 5484 5481 5478 5467 5463 5460 5457 5452 5457
5724 5720 5713 5706 5700 5695 5688 5682 5677 5672 5667 5660 5655 5648 5642 5637 5631 5623 5614 5608 5604 5597 5588 5581 5570 5561 5544 5528 5516 5502 5494 5487 5478 5469 5469 5466 5461 5458 5452 5446 5442 5440 5445
5717 5712 5706 5699 5693 5687 5680 5674 5669 5664 5656 5651 5645 5641 5635 5631 5623 5616 5607 5602 5598 5591 5583 5573 5560 5548 5533 5515 5500 5493 5488 5480 5474 5466 5464 5462 5458 5452 5446 5442 5436 5435 5435
5710 5704 5698 5691 5685 5679 5673 5667 5660 5653 5647 5642 5637 5632 5626 5621 5614 5605 5596 5595 5594 5586 5574 5562 5550 5537 5521 5503 5488 5481 5478 5472 5464 5459 5455 5454 5450 5445 5440 5433 5430 5424 5424
5703 5696 5690 5683 5677 5672 5665 5657 5649 5641 5637 5632 5629 5622 5616 5609 5601 5593 5586 5583 5579 5574 5562 5547 5534 5518 5505 5490 5480 5475 5471 5466 5457 5449 5444 5441 5439 5437 5435 5432 5429 5424 5422
5695 5687 5681 5675 5669 5662 5654 5646 5638 5631 5625 5619 5615 5608 5602 5597 5591 5580 5571 5566 5564 5558 5548 5534 5522 5506 5489 5477 5469 5468 5462 5456 5451 5445 5442 5438 5433 5429 5427 5427 5425 5422 5419
5685 5677 5672 5666 5659 5651 5643 5636 5628 5620 5612 5608 5603 5597 5592 5584 5576 5568 5561 5552 5542 5536 5527 5517 5503 5486 5473 5468 5464 5461 5456 5452 5449 5446 5443 5438 5429 5424 5422 5420 5420 5419 5418
5672 5667 5662 5655 5648 5640 5632 5625 5618 5611 5602 5597 5593 5588 5582 5573 5565 5556 5547 5538 5531 5520 5514 5502 5484 5472 5467 5463 5458 5453 5450 5449 5448 5448 5444 5441 5432 5427 5421 5413 5411 5413 5412
5664 5657 5650 5643 5637 5629 5621 5613 5606 5600 5592 5586 5581 5575 5568 5560 5553 5543 5535 5524 5515 5505 5495 5487 5475 5464 5462 5455 5452 5451 5449 5443 5439 5437 5437 5437 5435 5429 5421 5412 5406 5405 5406
5652 5645 5639 5632 5625 5617 5610 5601 5594 5589 5580 5574 5568 5560 5553 5546 5537 5523 5514 5505 5494 5483 5468 5465 5464 5460 5457 5450 5443 5440 5439 5436 5432 5428 5425 5423 5425 5425 5417 5411 5405 5402 5401
5640 5634 5627 5619 5612 5603 5596 5591 5581 5572 5563 5553 5545 5539 5536 5524 5514 5504 5495 5484 5469 5459 5455 5452 5450 5447 5444 5441 5436 5431 5429 5428 5423 5418 5415 5413 5411 5412 5411 5407 5402 5399 5398
5626 5619 5611 5601 5597 5590 5582 5575 5568 5557 5544 5537 5530 5524 5516 5509 5501 5491 5482 5471 5462 5447 5444 5441 5438 5435 5432 5429 5427 5422 5419 5417 5414 5409 5407 5403 5401 5401 5402 5402 5398 5395 5394
5608 5597 5593 5589 5582 5575 5567 5560 5553 5547 5539 5532 5519 5511 5504 5494 5485 5475 5465 5453 5451 5442 5435 5431 5427 5426 5425 5422 5421 5416 5410 5408 5405 5400 5395 5390 5387 5388 5390 5393 5392 5391 5390
5591 5585 5579 5573 5566 5558 5550 5543 5537 5531 5524 5518 5508 5498 5487 5478 5471 5462 5452 5445 5436 5432 5426 5423 5420 5418 5416 5411 5411 5407 5402 5398 5393 5388 5382 5379 5378 5376 5380 5382 5386 5387 5386
5574 5565 5559 5558 5552 5543 5537 5530 5521 5515 5508 5501 5494 5486 5477 5467 5464 5454 5443 5434 5426 5423 5418 5413 5408 5406 5407 5404 5402 5398 5393 5387 5383 5375 5369 5371 5373 5371 5368 5372 5376 5380 5382
5557 5551 5543 5538 5533 5526 5516 5512 5509 5501 5496 5492 5482 5472 5461 5452 5447 5440 5430 5423 5416 5413 5408 5404 5400 5398 5399 5397 5395 5391 5385 5379 5373 5367 5365 5360 5361 5362 5361 5361 5365 5371 5375
5540 5534 5528 5522 5513 5509 5507 5500 5493 5488 5484 5479 5470 5460 5447 5441 5437 5428 5420 5414 5408 5403 5400 5396 5393 5391 5392 5391 5387 5383 5378 5372 5365 5360 5357 5356 5354 5352 5352 5354 5355 5360 5368
5522 5517 5510 5505 5500 5493 5488 5487 5482 5479 5473 5465 5458 5449 5438 5429 5424 5418 5412 5407 5402 5397 5395 5393 5389 5385 5386 5386 5382 5377 5372 5365 5358 5352 5351 5350 5350 5349 5349 5351 5351 5353 5358
5504 5499 5494 5491 5487 5480 5476 5474 5471 5463 5457 5451 5445 5438 5428 5419 5412 5408 5403 5399 5396 5392 5391 5390 5385 5380 5381 5382 5378 5373 5368 5360 5352 5347 5344 5344 5345 5344 5346 5348 5348 5350 5351
5488 5483 5478 5476 5473 5468 5465 5461 5457 5453 5447 5439 5430 5422 5416 5409 5405 5401 5396 5392 5390 5389 5387 5385 5381 5377 5378 5379 5375 5371 5365 5357 5349 5345 5344 5344 5344 5343 5342 5343 5345 5344 5347
5468 5465 5464 5461 5458 5456 5453 5449 5446 5441 5436 5427 5420 5412 5407 5403 5401 5396 5391 5388 5384 5385 5383 5380 5379 5376 5375 5376 5374 5370 5363 5356 5349 5345 5345 5345 5344 5342 5340 5339 5340 5339 5344